STARLINK-35920 (66623 NORAD) Tracking and Keplerian Element Data

This shows tracking and keplerian element data for the satellite.

Feedback or suggestion? Click here.




ElementValue
Catalog66623
NameSTARLINK-35920
Epoch Orbit541
Epoch Day354.00002315
Epoch Year2025
RAAN152.7686
Inclination53.1601
Eccentricity0.0001114
Argument of Perigee79.6665
Mean Anonmoly79.9296
Mean Motion15.39609547
Decay Rate0.00016111
L11 66623U 25271G 25354.00002315 .00016111 00000+0 41204-3 0 9993
L22 66623 53.1601 152.7686 0001114 79.6665 79.9296 15.39609547 5413



Live tracking and technical data element details for STARLINK-35920 (NORAD 66623). STARLINK-35920 can be tracked NOW for your location showing map with azimuth and elevation plus other details from your city location.







IsCatalogInMostPopularTable: catalog: 66623, numindb: 6
Update: records affected: 1



GetName: 66623 STARLINK-35920

Hit Count: updated at: Sat, 07 Feb 2026 08:15:21 GMT